Flag for India Weather past 2 weeks in Navi Mumbai, Maharashtra, India

Now
88 °F

Broken clouds.


Feels Like: 102 °F
Forecast: 80 / 85 °F
Wind: 9 mph from Southwest

Location: Bombay / Santacruz

Current Time: Jul 4, 2015 at 6:14:39 PM

Latest Report: Jul 4, 2015 at 5:40 PM


Visibility: 2 mi

Pressure: 29.80 "Hg

Humidity: 75%

Dew point: 79 °F

Location of Navi MumbaiLocation

Historic Weather in Navi Mumbai — Graph

°F

Navi Mumbai temperature yesterday

Maximum temperature yesterday: 90 °F (at 11:40 AM)
Minimum temperature yesterday: 84 °F (at 12:10 AM)
Average temperature yesterday: 86 °F

Past Weeks' High & Low Weather Summary

 TemperatureHumidityPressure
High90 °F (Jun 28, 2:40 PM)100% (Jun 19, 6:40 PM)29.86 "Hg (Jun 19, 6:40 PM)
Low77 °F (Jun 19, 6:40 PM)63% (Jul 3, 1:40 PM)29.42 "Hg (Jun 21, 5:10 PM)
Average84 °F82%29.66 "Hg
* Reported Jun 19 4:40 PM — Jul 4 4:40 PM, Navi Mumbai, Weather by CustomWeather, © 2015

Note: Actual official high and low records may vary slightly from our data, if they occured in-between our weather recording intervals... More about our weather records

Advertising

Navi Mumbai weather history for previous 24 hours

 ConditionsComfort  
Time TempWeatherWind HumidityBarometerVisibility
4:40 PM
Sat, Jul 4
88 °FBroken clouds.8 mph70%29.80 "Hg2 mi
4:10 PM88 °FBroken clouds.12 mph70%29.80 "Hg3 mi
3:10 PM90 °FBroken clouds.13 mph67%29.80 "Hg3 mi
2:10 PM88 °FBroken clouds.12 mph70%29.83 "Hg3 mi
1:40 PM88 °FScattered clouds.15 mph70%29.83 "Hg3 mi
1:10 PM88 °FScattered clouds.17 mph70%29.83 "Hg3 mi
12:40 PM88 °FScattered clouds.13 mph70%29.83 "Hg3 mi
12:10 PM88 °FScattered clouds.18 mph70%29.83 "Hg3 mi
11:40 AM88 °FScattered clouds.17 mph70%29.83 "Hg3 mi
11:10 AM88 °FScattered clouds.12 mph70%29.86 "Hg3 mi
10:40 AM88 °FScattered clouds.16 mph70%29.86 "Hg2 mi
10:10 AM88 °FScattered clouds.12 mph75%29.86 "Hg2 mi
9:40 AM86 °FScattered clouds.15 mph79%29.86 "Hg2 mi
9:10 AM86 °FBroken clouds.15 mph79%29.86 "Hg2 mi
8:40 AM86 °FBroken clouds.14 mph75%29.83 "Hg2 mi
8:10 AM86 °FScattered clouds.15 mph75%29.83 "Hg2 mi
7:40 AM84 °FScattered clouds.13 mph79%29.83 "Hg2 mi
7:10 AM84 °FScattered clouds.12 mph79%29.80 "Hg2 mi
6:40 AM84 °FScattered clouds.7 mph79%29.80 "Hg2 mi
6:10 AM84 °FPassing clouds.7 mph79%29.80 "Hg2 mi
5:40 AM84 °FPassing clouds.9 mph79%29.80 "Hg2 mi
5:10 AM84 °FPassing clouds.10 mph79%29.77 "Hg2 mi
4:40 AM84 °FPassing clouds.14 mph79%29.77 "Hg2 mi
3:40 AM84 °FPassing clouds.13 mph79%29.80 "Hg2 mi
3:10 AM84 °FPassing clouds.14 mph79%29.80 "Hg2 mi
2:40 AM84 °FPassing clouds.13 mph79%29.80 "Hg2 mi
2:10 AM84 °FPassing clouds.15 mph79%29.80 "Hg2 mi
1:40 AM84 °FPassing clouds.13 mph79%29.80 "Hg2 mi
1:10 AM84 °FPassing clouds.14 mph79%29.83 "Hg2 mi
12:40 AM86 °FPassing clouds.14 mph75%29.83 "Hg2 mi
12:10 AM84 °FPassing clouds.13 mph79%29.83 "Hg2 mi
11:40 PM
Fri, Jul 3
86 °FPassing clouds.14 mph75%29.83 "Hg2 mi
11:10 PM86 °FPassing clouds.14 mph75%29.86 "Hg2 mi
10:40 PM86 °FPassing clouds.14 mph75%29.83 "Hg2 mi
10:10 PM86 °FPassing clouds.9 mph75%29.83 "Hg2 mi
9:40 PM86 °FPassing clouds.13 mph75%29.83 "Hg2 mi
9:10 PM86 °FPassing clouds.13 mph75%29.83 "Hg2 mi
8:40 PM86 °FPassing clouds.12 mph75%29.83 "Hg2 mi
8:10 PM86 °FPassing clouds.13 mph75%29.83 "Hg2 mi
7:40 PM86 °FScattered clouds.14 mph75%29.83 "Hg2 mi
7:10 PM86 °FScattered clouds.14 mph75%29.83 "Hg2 mi
6:40 PM86 °FScattered clouds.13 mph79%29.83 "Hg2 mi
6:10 PM86 °FScattered clouds.15 mph75%29.80 "Hg2 mi
Weather by CustomWeather, © 2015

See weather overviewHow to use our weather pages